Theta_e
319 311 328 329 330 327 329 330 330 331 337 336 333 330 329 330 333 335 335 337 338 331 319 316 316 314 312 314 316 315 315 315 315 315 315 315 315 315 315 316 318 321 326 327 327 324 323 322 327
317 323 327 329 333 335 327 326 327 328 338 334 333 331 333 337 336 334 338 339 338 324 320 317 317 315 313 314 316 316 316 316 316 316 316 317 317 319 319 318 321 326 329 330 331 331 331 331 330
312 321 324 331 332 328 329 329 334 337 336 335 334 333 331 336 336 334 336 338 334 324 321 318 317 316 313 313 316 316 316 316 316 316 317 318 319 320 321 323 325 329 331 332 333 333 334 334 334
322 323 322 331 335 333 332 330 331 337 335 335 335 336 330 334 336 336 337 338 335 324 321 319 318 318 315 313 315 317 316 317 317 317 318 319 320 321 323 326 328 330 334 336 336 336 336 336 335
325 322 326 329 331 332 332 331 330 334 335 336 335 333 331 333 336 336 336 337 334 325 321 320 319 319 318 315 314 317 317 317 317 318 318 319 321 323 324 327 331 334 336 337 337 338 338 337 336
324 322 327 329 329 329 328 327 328 335 335 333 331 331 330 333 337 336 336 336 335 331 324 321 320 320 320 319 315 316 317 317 318 318 319 320 321 323 325 326 325 330 337 339 339 338 337 336 335
328 325 326 327 329 328 328 327 329 329 334 331 329 331 329 329 335 337 336 335 335 334 331 323 321 320 320 320 319 315 317 318 318 318 319 319 321 323 325 327 325 327 333 332 337 337 334 331 333
326 325 327 326 328 328 328 327 326 327 329 331 330 330 330 328 333 335 336 335 335 336 335 330 324 320 320 320 319 316 315 318 318 319 319 320 322 323 325 325 324 325 329 329 330 329 330 328 327
326 330 327 326 327 327 325 326 328 329 329 330 330 328 329 331 331 333 332 332 338 338 337 336 330 324 321 320 320 319 315 316 318 319 320 322 324 324 325 324 324 331 331 331 329 329 330 329 327
329 331 331 325 325 325 325 325 327 329 330 330 330 330 330 332 331 329 328 327 331 336 337 337 337 331 327 323 321 321 320 316 317 320 321 324 325 324 325 324 331 334 335 335 333 331 330 331 329
330 333 332 330 327 325 325 326 327 329 330 330 330 330 329 329 328 327 327 328 328 332 337 337 337 337 335 331 327 327 325 323 321 320 321 324 326 326 326 330 336 336 336 336 334 332 331 331 328
330 332 333 333 330 327 326 326 327 327 329 330 330 330 329 328 326 325 327 328 329 329 329 333 337 337 337 337 333 330 333 332 331 325 324 326 327 327 328 336 338 338 336 335 334 332 331 331 331
325 327 328 328 329 328 327 327 327 328 329 329 328 328 328 327 326 328 329 329 329 329 329 328 335 337 338 339 338 337 337 333 332 332 329 326 327 326 334 338 338 334 335 334 332 332 332 331 330
318 322 324 323 323 326 329 329 329 329 329 328 328 325 324 325 325 326 327 328 329 329 329 328 330 332 338 340 339 338 339 336 333 331 330 329 328 329 337 339 335 335 335 334 333 333 333 332 331
315 316 318 319 319 321 324 325 326 327 326 327 327 326 325 324 324 325 328 328 330 329 329 328 327 330 336 341 341 341 341 339 336 335 336 336 333 336 338 337 336 335 336 334 333 333 332 331 330
318 318 319 320 320 321 322 325 326 325 325 326 325 326 326 326 325 326 327 328 329 329 329 328 328 328 334 341 341 342 342 341 340 339 339 339 338 338 339 335 335 335 335 334 334 334 332 331 330
314 321 321 321 321 322 322 324 324 325 325 324 324 325 326 326 324 325 326 328 328 327 328 329 329 329 334 338 340 341 342 341 341 341 342 340 340 340 335 334 334 334 334 334 334 333 331 330 330
317 318 320 321 321 321 322 323 323 323 324 324 324 324 324 325 325 325 325 327 328 327 328 331 332 334 337 341 343 342 343 343 342 341 338 337 336 333 334 335 335 334 333 334 333 331 331 330 330
317 319 320 321 320 321 321 323 323 323 321 322 323 323 323 324 323 325 325 326 327 330 332 331 336 340 343 344 343 339 336 335 335 334 334 333 333 334 334 335 335 334 335 334 332 331 330 330 330
314 315 316 316 317 320 321 322 322 322 322 322 322 322 321 322 323 323 324 329 333 336 336 337 341 344 345 343 342 340 338 336 335 334 334 334 334 335 335 336 334 334 334 332 331 331 331 330 330
313 313 314 315 315 315 315 316 318 319 319 319 321 322 322 322 323 323 324 332 337 339 341 343 344 346 346 344 343 342 338 336 335 334 334 334 335 335 334 334 333 333 332 331 331 331 330 329 329
313 314 314 315 316 316 315 316 316 318 318 319 319 320 321 323 323 323 326 333 338 340 342 345 346 346 345 344 343 341 338 335 335 334 334 335 335 334 334 332 332 331 331 331 330 330 330 329 328
312 314 315 316 315 315 316 316 318 317 319 319 319 321 321 322 321 322 328 334 338 339 341 345 346 345 344 342 340 337 336 335 335 335 335 335 335 335 334 333 332 331 330 329 329 330 330 329 328
308 312 314 314 314 315 315 316 317 317 317 317 321 320 321 320 320 324 333 336 337 339 342 343 342 341 341 338 338 337 335 335 334 334 335 335 335 334 334 332 332 330 330 330 329 329 329 329 329
306 307 311 313 315 317 315 315 317 317 318 317 317 319 320 319 331 336 337 337 337 339 340 340 339 339 338 337 337 335 335 335 334 334 334 334 334 334 333 333 332 330 330 330 328 328 328 328 329
305 305 311 314 317 317 315 317 316 317 317 317 318 319 320 319 334 336 337 337 338 338 338 338 338 337 339 337 336 336 335 335 334 334 334 334 333 332 333 333 332 330 330 329 329 328 328 328 329
309 306 307 310 312 314 316 316 317 317 316 317 317 319 319 326 335 337 336 337 338 338 337 338 337 337 336 335 334 334 334 334 333 333 333 334 334 332 334 330 330 330 329 328 329 328 329 328 328
310 311 308 308 314 315 316 318 318 317 317 317 317 317 330 335 336 336 336 337 338 337 337 339 337 337 335 334 333 334 334 335 334 333 332 333 333 334 333 332 332 331 329 329 328 329 329 329 327
313 312 310 308 311 316 316 317 315 316 317 317 321 321 337 337 337 336 337 337 336 336 338 338 337 337 335 334 333 333 333 333 332 332 333 334 333 332 332 332 332 330 330 329 329 328 329 327 327
312 314 313 308 309 314 315 316 317 315 315 318 321 336 336 337 336 336 336 335 336 336 337 337 337 337 334 333 332 333 332 332 331 333 334 333 333 331 331 330 329 329 330 330 328 329 330 328 327
Wind_Speed
4 1 1 2 2 4 3 6 6 10 4 4 5 3 6 2 5 4 10 27 22 31 34 32 29 27 24 22 21 19 18 16 15 14 12 10 9 9 8 6 6 6 6 4 3 3 3 3 2
3 3 1 1 2 2 5 4 6 7 3 10 6 6 4 1 2 8 14 25 26 31 34 33 31 28 26 24 23 21 19 18 15 15 13 11 10 9 9 8 8 8 7 6 5 5 4 4 4
3 1 3 3 3 5 5 6 4 4 7 1 2 1 6 5 3 14 7 31 29 31 33 34 32 30 28 26 24 23 21 20 18 16 14 12 11 9 9 9 10 10 8 7 7 7 7 7 6
3 3 3 2 9 8 6 7 2 4 6 1 3 3 4 5 11 17 26 32 30 32 33 33 33 31 29 28 26 25 24 22 20 18 16 14 13 11 10 10 10 10 10 9 10 11 11 10 9
1 2 0 4 6 9 6 8 14 7 4 3 4 4 1 4 20 25 32 33 33 32 33 33 32 33 32 31 30 28 27 25 23 21 18 16 14 12 11 10 10 10 11 11 13 14 13 14 13
2 1 1 5 8 7 5 9 11 5 6 8 2 5 3 10 28 33 34 34 31 32 35 36 33 34 36 36 35 33 31 29 26 24 21 18 15 13 12 11 9 9 10 13 14 13 14 15 15
4 2 4 4 6 10 6 7 7 8 8 3 4 7 1 4 25 35 36 34 34 31 34 37 36 36 36 37 37 36 34 32 29 27 24 20 18 16 14 12 9 9 11 11 13 14 14 15 16
4 2 3 4 3 9 2 7 4 3 13 4 7 4 3 7 21 32 35 36 34 34 34 36 36 38 40 39 38 37 35 32 31 29 26 22 20 18 16 13 11 11 12 11 13 13 14 14 15
5 1 4 6 5 6 10 7 6 5 6 2 3 8 9 23 19 23 21 21 33 31 35 36 37 39 41 41 41 39 38 35 34 31 28 24 23 20 18 15 14 13 14 14 13 13 14 14 15
5 5 8 8 6 8 14 17 14 11 6 6 5 2 8 19 21 14 12 16 30 38 41 39 40 41 42 43 43 43 40 38 38 35 32 30 26 22 19 16 15 15 17 17 14 14 14 14 16
7 12 13 14 11 10 17 17 15 12 16 4 5 6 6 3 17 15 15 22 18 35 34 40 42 44 44 44 44 45 45 43 41 39 35 32 28 24 20 17 17 18 18 19 17 16 16 14 14
9 13 17 21 17 15 18 17 16 16 14 13 7 14 5 7 9 8 14 17 18 17 24 34 41 46 47 44 45 46 44 43 43 42 38 33 30 25 21 19 18 21 22 20 19 18 16 15 14
18 10 14 17 19 19 17 20 19 21 18 18 8 11 11 9 11 20 24 26 25 22 20 22 31 39 46 47 45 42 41 43 43 39 37 34 30 26 21 19 18 17 17 19 18 18 19 17 15
4 10 18 15 17 18 20 23 21 23 21 18 15 11 11 12 12 15 19 24 26 26 18 18 24 30 39 44 46 46 42 41 41 38 37 34 30 26 23 20 18 17 19 20 19 18 19 18 17
10 13 16 17 10 9 7 22 24 21 18 17 15 10 10 9 10 10 23 21 25 27 20 20 21 25 35 40 41 41 39 37 36 33 30 27 29 27 25 20 16 13 17 17 18 17 17 16 17
4 5 19 19 18 10 3 30 18 8 13 17 12 14 17 19 17 27 32 21 19 18 22 19 20 23 29 34 35 39 39 35 32 30 28 25 28 27 27 20 15 12 13 15 17 18 18 19 20
7 17 18 17 11 8 15 39 17 15 11 10 13 18 18 18 15 23 35 26 22 24 23 18 23 26 26 27 31 36 36 30 27 26 26 27 28 29 24 19 13 12 14 15 16 17 17 19 21
12 18 20 18 6 16 21 32 21 18 18 18 22 22 19 20 17 22 29 28 27 26 20 18 24 23 23 24 25 28 23 23 22 24 25 25 27 25 23 16 14 15 15 16 16 15 15 18 18
10 18 8 2 13 16 18 18 20 14 9 13 21 15 17 18 14 21 31 27 20 20 18 22 24 22 26 35 28 28 28 25 23 21 19 22 24 24 20 16 17 16 16 15 14 13 14 14 13
15 14 16 8 9 11 15 23 24 21 18 19 20 17 15 8 9 11 13 17 22 20 19 22 25 25 29 33 32 27 24 20 19 17 19 19 21 21 19 18 17 15 13 12 11 11 11 11 12
16 20 15 12 13 23 13 12 11 13 11 12 9 12 11 10 13 13 9 14 17 21 22 23 26 28 28 27 25 20 17 17 19 18 17 18 19 20 18 15 14 14 11 12 13 13 15 12 11
20 9 16 16 10 16 9 18 22 18 23 18 13 10 10 13 10 8 8 7 18 21 21 23 24 26 28 27 25 24 23 11 16 16 17 19 20 18 13 12 12 11 11 11 10 10 13 12 11
20 11 15 13 11 16 19 6 26 6 17 14 12 10 14 14 11 11 9 10 18 25 26 26 28 28 29 26 24 24 19 14 14 17 15 17 15 13 11 12 11 11 11 9 9 10 12 15 12
5 8 10 9 4 10 10 8 28 15 22 15 6 11 14 13 9 3 9 18 19 25 27 31 31 28 27 23 20 19 16 14 16 14 15 14 11 11 12 12 12 12 10 10 10 10 11 12 14
5 2 2 2 6 17 12 9 22 6 3 8 11 12 13 11 8 10 15 14 17 21 28 32 30 24 24 24 19 16 15 17 16 13 11 11 10 11 11 13 13 12 9 8 8 10 10 11 13
6 9 5 7 4 7 9 13 17 19 30 22 20 17 15 4 8 11 14 15 19 23 26 27 28 25 24 23 19 17 15 13 10 9 10 7 7 7 7 11 13 12 9 8 7 8 9 9 10
5 9 5 5 15 1 7 10 18 21 24 21 22 9 12 7 10 13 13 14 18 20 24 30 30 26 24 21 17 13 11 10 9 8 6 5 5 5 6 10 11 10 9 9 9 8 8 8 8
9 3 4 4 6 9 6 8 11 6 10 12 10 15 6 9 12 12 12 12 19 21 27 29 28 25 22 20 15 13 11 9 7 6 5 6 6 7 8 9 8 9 10 9 8 6 6 7 7
2 4 4 4 4 10 6 9 6 12 12 15 15 12 15 16 17 15 14 16 20 23 26 28 26 24 21 20 16 14 11 9 7 7 7 6 7 8 8 9 8 10 9 9 7 5 6 7 8
7 5 5 4 10 5 10 18 8 10 11 12 10 12 15 17 17 15 14 13 19 21 23 25 26 24 24 20 16 13 12 9 8 7 8 6 8 9 9 9 10 9 11 8 5 5 6 8 5
Wind_Direction
251 170 119 100 47 78 255 254 240 272 272 191 239 48 143 110 152 197 167 170 175 171 175 175 176 177 174 171 169 169 168 163 158 153 154 154 152 156 158 164 167 167 173 181 188 206 223 230 241
214 123 102 68 118 150 254 233 245 262 303 329 341 95 21 56 132 119 131 176 175 172 176 178 179 181 179 178 177 177 175 172 167 164 163 163 163 165 168 174 183 185 192 201 210 219 232 248 257
162 88 96 142 198 210 212 195 140 272 267 179 219 53 132 174 28 148 196 174 174 175 179 181 182 183 184 185 184 184 183 180 178 178 175 171 171 174 178 184 189 193 200 211 224 235 239 240 246
133 24 3 150 237 263 254 288 5 266 310 213 259 311 75 213 156 181 167 175 174 178 182 183 184 186 189 191 191 191 191 189 188 189 187 181 182 184 187 192 196 197 205 218 230 238 242 244 244
57 73 302 241 245 253 283 292 298 245 245 253 214 176 10 340 156 169 168 174 178 181 187 188 189 190 193 195 197 197 198 197 196 196 196 195 191 195 198 200 209 211 214 225 235 242 248 242 240
16 111 140 241 247 270 283 280 275 210 258 294 246 96 205 151 149 166 174 179 184 187 191 193 194 196 198 199 201 201 202 202 202 202 201 202 200 203 209 212 213 226 225 233 239 244 247 250 244
138 111 231 273 283 300 282 305 317 303 241 236 145 122 205 255 171 174 181 185 190 196 194 196 198 203 205 206 205 204 205 206 206 208 207 207 205 209 216 226 233 234 236 241 239 243 249 252 250
160 116 272 252 238 275 197 344 309 350 298 113 137 152 213 229 183 179 188 191 195 201 202 201 201 205 207 209 211 209 209 211 213 213 213 212 211 214 222 232 242 243 242 242 240 244 251 257 256
134 160 232 240 210 257 339 359 291 325 357 73 196 153 195 198 183 193 191 183 204 208 209 208 204 207 211 212 213 214 214 212 215 216 216 215 215 218 226 237 249 240 244 246 241 250 255 258 257
154 196 230 215 251 292 311 307 291 326 332 322 327 17 6 190 199 202 205 209 199 208 214 214 212 210 212 214 215 216 216 216 216 217 215 216 218 221 231 242 246 246 250 247 245 251 257 258 255
199 219 232 257 259 271 284 286 291 301 298 249 244 299 328 218 190 210 220 225 210 210 219 219 220 218 216 214 216 217 216 217 218 217 216 216 218 220 226 235 239 248 251 239 240 245 250 255 261
255 225 227 254 254 258 260 281 282 275 270 275 262 304 281 283 300 235 241 231 223 228 218 219 220 219 220 217 217 216 215 214 218 219 217 215 217 220 223 227 241 250 248 236 238 241 246 249 256
244 240 232 242 257 256 262 264 264 276 277 276 247 252 252 249 251 264 253 260 256 238 250 215 215 220 223 219 217 216 215 216 220 220 220 218 218 221 218 225 232 246 239 232 234 239 247 251 252
306 240 254 253 250 253 255 260 262 269 268 279 277 240 226 228 238 251 263 261 253 245 248 221 209 217 220 219 219 221 218 220 220 224 226 222 221 219 215 214 233 247 232 230 234 238 245 251 245
258 271 276 252 248 256 270 265 250 251 267 269 271 290 298 278 268 253 266 258 265 254 224 225 226 219 218 218 218 217 218 217 216 219 219 219 215 211 214 219 223 235 225 228 224 229 238 235 226
259 246 244 249 248 254 261 261 253 258 248 260 267 275 280 276 267 270 269 263 266 226 222 232 218 221 217 214 217 217 219 215 215 215 215 211 210 211 212 214 220 225 223 226 232 239 246 245 241
231 243 240 246 228 233 206 258 256 250 247 270 277 277 278 278 265 259 262 255 233 222 232 232 214 216 213 213 216 214 215 213 214 211 210 212 211 211 215 213 224 229 237 233 238 253 250 251 250
220 226 237 247 220 231 242 261 263 265 270 270 269 268 268 264 257 256 256 248 228 235 238 222 204 204 203 192 195 201 197 198 191 187 187 196 198 207 211 218 227 229 237 243 253 248 249 251 255
259 245 268 232 217 228 245 257 261 253 244 262 266 269 261 257 252 259 255 236 225 236 209 197 193 194 189 174 153 155 159 159 161 171 188 196 205 209 210 221 220 227 232 252 249 253 255 243 247
249 263 266 290 289 236 246 255 263 264 259 249 256 259 253 256 262 257 247 203 193 188 193 192 190 185 182 177 173 160 159 169 178 184 195 195 203 206 213 217 221 232 237 248 245 241 236 237 216
231 236 254 261 294 288 291 285 284 266 250 257 262 250 265 241 252 248 201 196 174 176 181 178 180 178 174 172 171 163 161 168 186 198 207 212 206 205 206 214 242 243 245 247 244 236 230 225 214
246 242 238 254 250 258 216 277 268 266 264 264 241 247 245 248 246 245 197 165 174 168 163 165 171 162 161 163 165 169 175 176 203 206 219 219 197 200 214 237 235 235 237 239 246 245 233 222 209
252 259 232 237 235 251 262 293 267 250 258 247 248 248 251 255 240 235 190 168 161 158 156 153 156 161 161 163 167 171 174 177 179 197 198 182 190 211 238 230 227 228 231 239 244 243 227 220 215
325 245 244 253 234 251 219 199 272 248 246 246 218 242 255 266 265 172 147 144 146 153 152 152 152 155 161 163 161 162 153 158 155 149 155 169 191 219 228 221 227 223 230 240 238 228 217 215 220
209 47 246 246 197 236 158 211 237 248 279 223 237 247 253 245 161 151 149 148 144 145 147 152 153 145 157 160 158 157 142 142 148 151 165 176 201 233 234 222 210 211 232 233 206 210 215 213 219
215 177 197 195 204 230 274 229 240 232 262 265 260 247 252 240 167 164 159 152 147 148 148 152 153 144 149 146 136 136 138 141 146 159 168 189 229 234 219 215 208 213 219 202 198 200 218 224 218
308 222 179 287 273 270 226 274 281 275 275 267 269 239 245 195 158 156 147 141 144 145 148 152 150 143 141 141 138 142 142 143 138 161 179 211 211 208 205 183 190 203 195 186 197 217 213 213 205
208 253 176 204 200 239 253 257 234 255 260 266 262 245 172 146 137 139 136 137 141 146 149 155 153 148 147 143 147 153 155 159 177 185 179 190 188 186 184 187 196 187 181 195 200 200 210 201 190
273 216 191 161 197 221 256 249 197 264 260 278 296 204 155 155 153 150 144 145 144 144 150 156 153 153 151 153 159 168 162 163 168 170 171 179 180 172 182 179 180 172 172 181 192 199 198 196 178
258 255 172 218 238 258 242 253 312 252 278 285 243 163 159 158 155 142 144 145 145 147 154 158 157 157 160 163 171 169 164 164 164 158 168 181 179 167 176 167 168 183 182 188 201 202 197 184 200